Regional Weather Roundup
Issued by NWS Upton, NY

Current Version | Previous Version | Graphics & Text | Print | Product List | Glossary Off
Versions: 1 2 3 4 5 6 7 8 9 10 11 12 13 14 15 16 17 18 19 20 21 22 23 24 25 26 27 28 29 30 31 32 33 34 35 36 37 38 39 40 41 42 43 44 45 46 47 48 49
337 ASUS41 KOKX 140304 RWROKX REGIONAL WEATHER ROUNDUP NATIONAL WEATHER SERVICE NEW YORK NY 1000 PM EST SAT FEB 13 2016 NOTE: "FAIR" INDICATES FEW OR NO CLOUDS BELOW 12,000 FEET WITH NO SIGNIFICANT WEATHER AND/OR OBSTRUCTIONS TO VISIBILITY. NYZ071-072-176-178-NJZ106-104-140400- NEW YORK CITY METRO AREA CITY SKY/WX TMP DP RH WIND PRES REMARKS CENTRAL PARK CLEAR 6 -15 37 NW15G23 30.33S WCI -12 LAGUARDIA APRT PTCLDY 8 -9 45 NW21G31 30.32S WCI -12 KENNEDY INTL PTCLDY 7 -16 34 NW25G36 30.33R WCI -15 NEWARK/LIBERTY PTCLDY 7 -13 39 NW13G23 30.33S WCI -9 BRNX BOT. GARD N/A 7 -13 40 W6 30.30F WCI -3 TETERBORO CLEAR 6 -15 37 NW17G30 30.32S WCI -13 $$ NYZ177-179-078>081-140400- LONG ISLAND NEW YORK CITY SKY/WX TMP DP RH WIND PRES REMARKS FARMINGDALE CLEAR 7 -18 31 NW16G24 30.31R WCI -11 ISLIP PTCLDY 4 -17 37 NW25G40 30.27S WCI -19 SHIRLEY PTCLDY 4 -16 39 NW18 30.29R WCI -16 RIVERHEAD N/A 7 -24 23 W13 30.24S WCI -9 WESTHAMPTON PTCLDY 2 -14 47 W17G28 30.27R WCI -18 EAST HAMPTON CLOUDY 5 -14 42 NW9G21 30.24R WCI -9 MONTAUK POINT N/A 5 -11 47 W21G36 30.24R WCI -16 $$ NYZ052-065-067-140400- HUDSON VALLEY CITY SKY/WX TMP DP RH WIND PRES REMARKS WHITE PLAINS CLEAR 3 -16 40 W23G33 30.23S WCI -19 NEWBURGH MOCLDY 1 -15 46 NW25G37 30.24F WCI -22 MONTGOMERY PTCLDY 2 -16 42 NW12G21 30.25F WCI -15 POUGHKEEPSIE CLOUDY 5 -15 39 W10 30.27S WCI -10 ALBANY PTCLDY -7 -25 41 NW14 30.32R WCI -28 $$ NJZ001-105-106-008-010-013-015-019>022-104-140400- NEW JERSEY CITY SKY/WX TMP DP RH WIND PRES REMARKS NEWARK/LIBERTY PTCLDY 7 -13 39 NW13G23 30.33S WCI -9 TETERBORO CLEAR 6 -15 37 NW17G30 30.32S WCI -13 CALDWELL CLEAR 5 -14 41 NW13 30.32S WCI -12 MORRISTOWN NOT AVBL SOMERVILLE CLEAR 7 -11 43 NW13G18 30.32R WCI -9 SUSSEX CLEAR 3 -14 45 VRB6 30.26S WCI -8 ANDOVER N/A 2 -13 49 NW8 30.28R WCI -12 TRENTON CLEAR 10 -10 40 NW10G16 30.32S WCI -4 MILLVILLE PTCLDY 14 -1 51 NW15G29 30.37R WCI -1 ATLANTIC CITY CLEAR 12 -8 40 W10 30.35S WCI -1 WRIGHTSTOWN CLEAR 10 -10 38 NW10 30.30R WCI -3 TOMS RIVER CLEAR 10 -9 40 NW12G18 30.33S WCI -4 BELMAR CLEAR 10 -15 31 NW16 30.31R WCI -7 $$ PAZ047>061-062-071-140400- EASTERN PENNSYLVANIA CITY SKY/WX TMP DP RH WIND PRES REMARKS PHILADELPHIA PTCLDY 14 -7 38 W12 30.37S WCI 0 ALLENTOWN MOCLDY 10 -9 42 W14G25 30.31R WCI -6 SCRANTON MOCLDY 1 -10 60 W8 30.26S WCI -13 $$ CTZ002-004>006-009-010-012-RIZ004-006-007-MAZ004-011-015-140400- SOUTHERN NEW ENGLAND IN CT CITY SKY/WX TMP DP RH WIND PRES REMARKS BRADLEY INTL PTCLDY -2 -18 46 NW17 30.23R WCI -23 HARTFORD PTCLDY 1 -16 44 NW12G18 30.26R WCI -16 DANBURY CLEAR 1 -19 38 W12G21 30.23S WCI -16 WTRBRY/OXFORD CLEAR -2 -26 32 W6 30.17S WCI -14 BRIDGEPORT CLEAR 3 -16 40 W15G22 30.27F WCI -16 MERIDEN CLEAR 2 -17 41 NW7 30.23S WCI -11 NEW HAVEN CLEAR 3 -15 43 W12G20 30.26R WCI -13 CHESTER FAIR 1 -17 42 W5 30.20S WCI -8 GROTON CLEAR 1 -12 54 NW14 30.23R WCI -17 WILLIMANTIC CLEAR 0 -19 40 NW13G24 30.22R WCI -18 IN RI CITY SKY/WX TMP DP RH WIND PRES REMARKS PROVIDENCE CLEAR 0 -21 36 NW16G30 30.18S WCI -20 BLOCK ISLAND MOCLDY 3 N/A N/A NW22G44 30.18R WCI -19 WESTERLY CLEAR 1 -19 38 W10G23 30.21R WCI -15 IN MA CITY SKY/WX TMP DP RH WIND PRES REMARKS BOSTON PTCLDY 1 -21 35 NW21G32 30.14R WCI -21 WORCESTER CLEAR -7 -23 45 W16G25 30.03S WCI -29 WESTFIELD MOCLDY -3 -17 51 NW20G33 30.21R WCI -26 PROVINCETOWN FLURRIES 6 -3 66 NW24G36 30.08R WCI -16 NANTUCKET MOCLDY 7 -9 48 NW25G36 30.10R WCI -15 $$ ANZ330-335-338-340-345-350-353-355-140400- COASTAL MARINE OBSERVATIONS STATION/POSITION TIME SKY/WX TEMP WIND PRES VSBY WAVE AIR SEA DIR/SP/G HT/PER (UTC) (F) (DEG/KT/KT) (MB) (MI) (FT/S) NY HARB ENTRANCE 0250 12 42 310/ 25/ 37 1025.8 5/ 5 4S FIRE IS NOT AVBL 20S FIRE ISLAND 0150 14 41 320/ 31/ 39 1024.3 8/ 7 GREAT SOUTH BAY NOT AVBL 23SW MTP 0250 10 44 300/ 27/ 35 1022.9 9/ 7 HUDSON CANYON 0150 20 48 1023.1 14/ 8 KINGS POINT 0200 7 34 1026.4 EXECUTION ROCKS NOT AVBL CENTRAL LI SOUND 0200 8 300/ 23/ 33 N/A 6/ 6 EASTERN LI SOUND 0200 9 39 300/ 23/ 31 N/A ROBBINS REEF 0200 7 1025.9 $$ >>>>>>>>>>>>>>>>>>>>>>>>>>>> KEY <<<<<<<<<<<<<<<<<<<<<<<<<<< > < > SKY/WX - SKY CONDITION/PRESENT WEATHER < > TMP - TEMPERATURE IN FAHRENHEIT < > DP - DEWPOINT IN FAHRENHEIT < > RH - RELATIVE HUMIDITY IN PERCENT < > WIND - DIRECTION AND SPEED IN MPH < > PRES - MEAN SEA LEVEL PRESSURE IN INCHES OF HG < > WCI - WIND CHILL INDEX < > VSB - VISIBILITY IN MILES < > HX - HEAT INDEX < > TC - TEMPERATURE IN CELSIUS < > VRB - VARIABLE WIND DIRECTION < > < >>>>>>>>>>>>>>>>>>>>>>>>>>>> KEY <<<<<<<<<<<<<<<<<<<<<<<<<<<

USA.gov is the U.S. government's official web portal to all federal, state and local government web resources and services.